User: anonymous   Login
Location: Unspecified
(0.0000°N, 0.0000°E)
Time: 01:16:38
(UTC+01:00)
Language:

ATLAS 5 CENTAUR R/B - Orbit

View from above orbital plane
View from above orbital plane
View from above satellite
View from above satellite

Ground track
Ground track

The orbit data is extracted from the following two-line orbital elements,

1 31702U 07027B   16335.23608717 0.00000200  00000-0  70545-4 0    01
2 31702  63.3712  82.4924 0250315   1.8485 358.1515 14.18530716    02
Epoch (UTC): 30 November 2016 05:39:57
Eccentricity: 0.0250315
inclination: 63.3712°
perigee height: 650 km
apogee height: 1011 km
right ascension of ascending node: 82.4924°
argument of perigee: 1.8485°
revolutions per day: 14.18530716
mean anomaly at epoch: 358.1515°
orbit number at epoch: 0

The dashed part of the orbit path shows where the satellite is in the earth's shadow,  

DLR